Home   Weather   Glendale   Past weeks

Flag for USA Past Weather in Glendale, California, USA — Yesterday and Last 2 Weeks

Now
51 °F

Passing clouds.


Feels Like: 51 °F
Forecast: 45 / 61 °F
Wind: No wind

Location: Bob Hope Airport

Current Time: Dec 7, 2016 at 12:58:16 am

Latest Report: Dec 6, 2016 at 11:53 pm


Visibility: 10 mi

Pressure: 29.99 "Hg

Humidity: 77%

Dew Point: 44 °F

Location of GlendaleLocation

Past Weather in Glendale — Graph

°F

Glendale Temperature Yesterday

Maximum temperature yesterday: 62 °F (at 2:53 pm)
Minimum temperature yesterday: 49 °F (at 5:53 am)
Average temperature yesterday: 56 °F

High & Low Weather Summary for the Past Weeks

 TemperatureHumidityPressure
High76 °F (Nov 25, 1:53 pm)93% (Nov 26, 8:53 pm)30.16 "Hg (Nov 26, 8:53 pm)
Low40 °F (Nov 26, 6:53 am)7% (Dec 3, 2:53 am)29.79 "Hg (Nov 28, 3:53 pm)
Average55 °F47%30.00 "Hg
* Reported Nov 21 10:53 pm — Dec 6 10:53 pm, Glendale, Weather by CustomWeather, © 2016

Note: Actual official high and low records may vary slightly from our data, if they occured in-between our weather recording intervals... More about our weather records

Advertising

Glendale Weather History for the Previous 24 Hours

Scroll right to see more
 ConditionsComfort  
Time TempWeatherWind HumidityBarometerVisibility
10:53 pm
Tue, Dec 6
52 °FPassing clouds.No wind77%29.99 "Hg10 mi
9:53 pm54 °FOvercast.3 mph74%29.98 "Hg10 mi
8:53 pm54 °FOvercast.No wind74%29.97 "Hg10 mi
7:53 pm56 °FOvercast.No wind70%29.96 "Hg10 mi
6:53 pm57 °FMostly cloudy.5 mph67%29.95 "Hg10 mi
5:53 pm57 °FClear.5 mph64%29.95 "Hg10 mi
4:53 pm58 °FPassing clouds.6 mph62%29.94 "Hg10 mi
3:53 pm60 °FPartly sunny.9 mph60%29.92 "Hg10 mi
2:53 pm62 °FPartly sunny.7 mph52%29.91 "Hg10 mi
1:53 pm61 °FPartly sunny.7 mph52%29.91 "Hg10 mi
12:53 pm61 °FPassing clouds.3 mph52%29.93 "Hg10 mi
11:53 am60 °FSunny.No wind53%29.95 "Hg10 mi
10:53 am59 °FScattered clouds.No wind62%29.98 "Hg10 mi
9:53 am56 °FPartly sunny.No wind65%30.00 "Hg10 mi
8:53 am54 °FMore clouds than sun.3 mph67%29.98 "Hg10 mi
8:01 am52 °FMostly cloudy.No wind75%30.00 "Hg10 mi
6:53 am50 °FPartly sunny.No wind80%29.96 "Hg10 mi
5:53 am49 °FClear.3 mph84%29.95 "Hg10 mi
4:53 am51 °FPassing clouds.No wind83%29.93 "Hg9 mi
3:53 am53 °FPassing clouds.No wind80%29.93 "Hg9 mi
2:53 am55 °FOvercast.3 mph80%29.93 "Hg10 mi
1:53 am55 °FOvercast.3 mph83%29.94 "Hg10 mi
12:53 am55 °FLow clouds.3 mph83%29.94 "Hg8 mi
12:03 am55 °FLow clouds.3 mph83%29.97 "Hg7 mi
Weather by CustomWeather, © 2016

See weather overviewHow to use our weather pages